Location: Beuerbach
(48.1459°N, 10.9174°E)
Time: 02:24:04
(UTC+00:00)

MSX - Pass Details

Date: 23 May 2024
Orbit: 893 x 906 km, 99.0° (Epoch: 13 June)

Event Time Altitude Azimuth Distance (km) Brightness Sun altitude
Rises 02:03:08 0° 10° (N) 3,526 8.1 -11.4°
Reaches altitude 10° 02:05:39 10° 4° (N) 2,580 7.1 -11.1°
Maximum altitude 02:11:03 44° 294° (WNW) 1,215 4.4 -10.5°
Enters shadow 02:15:55 13° 226° (SW) 2,375 5.4 -10.0°
